Time,TemperatureF,DewpointF,PressureIn,WindDirection,WindDirectionDegrees,WindSpeedMPH,WindSpeedGustMPH,Humidity,HourlyPrecipIn,Conditions,Clouds,dailyrainin,SoftwareType,DateUTC
2013-02-11 00:01:00,20.0,18.0,-100.00,WSW,245,2.0,6.0,90,0.00,,,0.00,,2013-02-11 09:01:00,
2013-02-11 00:12:00,20.0,18.0,-100.00,WSW,245,2.0,6.0,90,0.00,,,0.00,,2013-02-11 09:12:00,
2013-02-11 00:21:00,20.0,17.0,-100.00,SW,220,1.0,6.0,90,0.00,,,0.00,,2013-02-11 09:21:00,
2013-02-11 00:31:00,20.0,17.0,-100.00,SW,220,1.0,6.0,90,0.00,,,0.00,,2013-02-11 09:31:00,
2013-02-11 00:41:00,20.0,17.0,-100.00,SW,220,1.0,6.0,90,0.00,,,0.00,,2013-02-11 09:41:00,
2013-02-11 00:51:00,19.0,17.0,-100.00,West,275,4.0,6.0,90,0.00,,,0.00,,2013-02-11 09:51:00,
2013-02-11 01:01:00,19.0,17.0,-100.00,West,275,4.0,6.0,90,0.00,,,0.00,,2013-02-11 10:01:00,
2013-02-11 01:11:00,19.0,17.0,-100.00,West,275,4.0,6.0,90,0.00,,,0.00,,2013-02-11 10:11:00,
2013-02-11 01:21:00,17.0,14.0,-100.00,South,175,2.0,6.0,89,0.00,,,0.00,,2013-02-11 10:21:00,
2013-02-11 01:31:00,17.0,14.0,-100.00,South,175,2.0,6.0,89,0.00,,,0.00,,2013-02-11 10:31:00,
2013-02-11 01:41:00,17.0,14.0,-100.00,South,175,2.0,6.0,89,0.00,,,0.00,,2013-02-11 10:41:00,
2013-02-11 01:51:00,17.0,14.0,-100.00,West,275,2.0,3.0,89,0.00,,,0.00,,2013-02-11 10:51:00,
2013-02-11 02:01:00,17.0,14.0,-100.00,West,275,2.0,3.0,89,0.00,,,0.00,,2013-02-11 11:01:00,
2013-02-11 02:11:00,17.0,14.0,-100.00,West,275,2.0,3.0,89,0.00,,,0.00,,2013-02-11 11:11:00,
2013-02-11 02:22:00,17.0,15.0,-100.00,NW,320,2.0,3.0,89,0.00,,,0.00,,2013-02-11 11:22:00,
2013-02-11 02:32:00,17.0,15.0,-100.00,NW,320,2.0,3.0,89,0.00,,,0.00,,2013-02-11 11:32:00,
2013-02-11 02:42:00,17.0,15.0,-100.00,NW,320,2.0,3.0,89,0.00,,,0.00,,2013-02-11 11:42:00,
2013-02-11 02:52:00,17.0,15.0,-100.00,North,355,0.0,1.0,89,0.00,,,0.00,,2013-02-11 11:52:00,
2013-02-11 03:02:00,17.0,15.0,-100.00,North,355,0.0,1.0,89,0.00,,,0.00,,2013-02-11 12:02:00,
2013-02-11 03:12:00,17.0,15.0,-100.00,North,355,0.0,1.0,89,0.00,,,0.00,,2013-02-11 12:12:00,
2013-02-11 03:22:00,18.0,15.0,-100.00,West,270,4.0,5.0,89,0.00,,,0.00,,2013-02-11 12:22:00,
2013-02-11 03:31:00,18.0,15.0,-100.00,West,270,4.0,5.0,89,0.00,,,0.00,,2013-02-11 12:31:00,
2013-02-11 03:42:00,18.0,15.0,-100.00,West,270,4.0,5.0,89,0.00,,,0.00,,2013-02-11 12:42:00,
2013-02-11 03:52:00,18.0,15.0,-100.00,NNW,330,3.0,5.0,89,0.00,,,0.00,,2013-02-11 12:52:00,
2013-02-11 04:01:00,18.0,15.0,-100.00,NNW,330,3.0,5.0,89,0.00,,,0.00,,2013-02-11 13:01:00,
2013-02-11 04:11:00,18.0,15.0,-100.00,NNW,330,3.0,5.0,89,0.00,,,0.00,,2013-02-11 13:11:00,
2013-02-11 04:21:00,17.0,14.0,-100.00,NW,320,4.0,9.0,89,0.00,,,0.00,,2013-02-11 13:21:00,
2013-02-11 04:32:00,17.0,14.0,-100.00,NW,320,4.0,9.0,89,0.00,,,0.00,,2013-02-11 13:32:00,
2013-02-11 04:41:00,17.0,14.0,-100.00,NW,320,4.0,9.0,89,0.00,,,0.00,,2013-02-11 13:41:00,
2013-02-11 04:51:00,17.0,14.0,-100.00,North,0,4.0,7.0,89,0.00,,,0.00,,2013-02-11 13:51:00,
2013-02-11 05:01:00,17.0,14.0,-100.00,North,0,4.0,7.0,89,0.00,,,0.00,,2013-02-11 14:01:00,
2013-02-11 05:11:00,17.0,14.0,-100.00,North,0,4.0,7.0,89,0.00,,,0.00,,2013-02-11 14:11:00,
2013-02-11 05:21:00,16.0,13.0,-100.00,North,0,6.0,9.0,89,0.00,,,0.00,,2013-02-11 14:21:00,
2013-02-11 05:32:00,16.0,13.0,-100.00,North,0,6.0,9.0,89,0.00,,,0.00,,2013-02-11 14:32:00,
2013-02-11 05:42:00,16.0,13.0,-100.00,North,0,6.0,9.0,89,0.00,,,0.00,,2013-02-11 14:42:00,
2013-02-11 05:52:00,16.0,13.0,-100.00,North,0,6.0,9.0,89,0.00,,,0.00,,2013-02-11 14:52:00,
2013-02-11 06:01:00,16.0,13.0,-100.00,North,0,6.0,9.0,89,0.00,,,0.00,,2013-02-11 15:01:00,
2013-02-11 06:11:00,16.0,13.0,-100.00,North,0,6.0,9.0,89,0.00,,,0.00,,2013-02-11 15:11:00,
2013-02-11 06:22:00,15.0,13.0,-100.00,NNW,345,6.0,9.0,89,0.00,,,0.00,,2013-02-11 15:22:00,
2013-02-11 06:32:00,15.0,13.0,-100.00,NNW,345,6.0,9.0,89,0.00,,,0.00,,2013-02-11 15:32:00,
2013-02-11 06:42:00,15.0,13.0,-100.00,NNW,345,6.0,9.0,89,0.00,,,0.00,,2013-02-11 15:42:00,
2013-02-11 06:51:00,15.0,12.0,-100.00,NNW,335,5.0,7.0,88,0.00,,,0.00,,2013-02-11 15:51:00,
2013-02-11 07:01:00,15.0,12.0,-100.00,NNW,335,5.0,7.0,88,0.00,,,0.00,,2013-02-11 16:01:00,
2013-02-11 07:11:00,15.0,12.0,-100.00,NNW,335,5.0,7.0,88,0.00,,,0.00,,2013-02-11 16:11:00,
2013-02-11 07:21:00,15.0,12.0,-100.00,NW,315,2.0,5.0,88,0.00,,,0.00,,2013-02-11 16:21:00,
2013-02-11 07:32:00,15.0,12.0,-100.00,NW,315,2.0,5.0,88,0.00,,,0.00,,2013-02-11 16:32:00,
2013-02-11 07:42:00,15.0,12.0,-100.00,NW,315,2.0,5.0,88,0.00,,,0.00,,2013-02-11 16:42:00,
2013-02-11 07:52:00,15.0,12.0,-100.00,NNW,335,4.0,6.0,88,0.00,,,0.00,,2013-02-11 16:52:00,
2013-02-11 08:01:00,15.0,12.0,-100.00,NNW,335,4.0,6.0,88,0.00,,,0.00,,2013-02-11 17:01:00,
2013-02-11 08:11:00,15.0,12.0,-100.00,NNW,335,4.0,6.0,88,0.00,,,0.00,,2013-02-11 17:11:00,
2013-02-11 08:21:00,15.0,12.0,-100.00,North,0,4.0,6.0,88,0.00,,,0.00,,2013-02-11 17:21:00,
2013-02-11 08:32:00,15.0,12.0,-100.00,North,0,4.0,6.0,88,0.00,,,0.00,,2013-02-11 17:32:00,
2013-02-11 08:42:00,15.0,12.0,-100.00,North,0,4.0,6.0,88,0.00,,,0.00,,2013-02-11 17:42:00,
2013-02-11 08:52:00,13.0,11.0,-100.00,North,0,4.0,6.0,87,0.00,,,0.00,,2013-02-11 17:52:00,
2013-02-11 09:01:00,13.0,11.0,-100.00,North,0,4.0,6.0,87,0.00,,,0.00,,2013-02-11 18:01:00,
2013-02-11 09:11:00,13.0,11.0,-100.00,North,0,4.0,6.0,87,0.00,,,0.00,,2013-02-11 18:11:00,
2013-02-11 09:21:00,13.0,10.0,-100.00,NNW,330,4.0,5.0,87,0.00,,,0.00,,2013-02-11 18:21:00,
2013-02-11 09:32:00,13.0,10.0,-100.00,NNW,330,4.0,5.0,87,0.00,,,0.00,,2013-02-11 18:32:00,
2013-02-11 09:42:00,13.0,10.0,-100.00,NNW,330,4.0,5.0,87,0.00,,,0.00,,2013-02-11 18:42:00,
2013-02-11 09:52:00,13.0,10.0,-100.00,North,350,4.0,7.0,87,0.00,,,0.00,,2013-02-11 18:52:00,
2013-02-11 10:01:00,13.0,10.0,-100.00,North,350,4.0,7.0,87,0.00,,,0.00,,2013-02-11 19:01:00,
2013-02-11 10:11:00,13.0,10.0,-100.00,North,350,4.0,7.0,87,0.00,,,0.00,,2013-02-11 19:11:00,
2013-02-11 10:21:00,12.0,9.0,-100.00,North,350,4.0,5.0,87,0.00,,,0.00,,2013-02-11 19:21:00,
2013-02-11 10:31:00,12.0,9.0,-100.00,North,350,4.0,5.0,87,0.00,,,0.00,,2013-02-11 19:31:00,
2013-02-11 10:41:00,12.0,9.0,-100.00,North,350,4.0,5.0,87,0.00,,,0.00,,2013-02-11 19:41:00,
2013-02-11 10:51:00,13.0,10.0,-100.00,NW,315,2.0,4.0,87,0.00,,,0.00,,2013-02-11 19:51:00,
2013-02-11 11:01:00,13.0,10.0,-100.00,NW,315,2.0,4.0,87,0.00,,,0.00,,2013-02-11 20:01:00,
2013-02-11 11:11:00,13.0,10.0,-100.00,NW,315,2.0,4.0,87,0.00,,,0.00,,2013-02-11 20:11:00,
2013-02-11 11:21:00,13.0,10.0,-100.00,WNW,295,3.0,5.0,87,0.00,,,0.00,,2013-02-11 20:21:00,
2013-02-11 11:31:00,13.0,10.0,-100.00,WNW,295,3.0,5.0,87,0.00,,,0.00,,2013-02-11 20:31:00,
2013-02-11 11:41:00,13.0,10.0,-100.00,WNW,295,3.0,5.0,87,0.00,,,0.00,,2013-02-11 20:41:00,
2013-02-11 11:52:00,13.0,10.0,-100.00,NW,325,3.0,5.0,87,0.00,,,0.00,,2013-02-11 20:52:00,
2013-02-11 12:02:00,13.0,10.0,-100.00,NW,325,3.0,5.0,87,0.00,,,0.00,,2013-02-11 21:02:00,
2013-02-11 12:11:00,13.0,10.0,-100.00,NW,325,3.0,5.0,87,0.00,,,0.00,,2013-02-11 21:11:00,
2013-02-11 12:21:00,15.0,12.0,-100.00,NW,320,2.0,4.0,87,0.00,,,0.00,,2013-02-11 21:21:00,
2013-02-11 12:31:00,15.0,12.0,-100.00,NW,320,2.0,4.0,87,0.00,,,0.00,,2013-02-11 21:31:00,
2013-02-11 12:41:00,15.0,12.0,-100.00,NW,320,2.0,4.0,87,0.00,,,0.00,,2013-02-11 21:41:00,
2013-02-11 12:51:00,12.0,9.0,-100.00,North,350,4.0,6.0,87,0.00,,,0.00,,2013-02-11 21:51:00,
2013-02-11 13:01:00,12.0,9.0,-100.00,North,350,4.0,6.0,87,0.00,,,0.00,,2013-02-11 22:01:00,
2013-02-11 13:11:00,12.0,9.0,-100.00,North,350,4.0,6.0,87,0.00,,,0.00,,2013-02-11 22:11:00,
2013-02-11 13:21:00,12.0,9.0,-100.00,North,0,2.0,4.0,86,0.00,,,0.00,,2013-02-11 22:21:00,
2013-02-11 13:32:00,12.0,9.0,-100.00,North,0,2.0,4.0,86,0.00,,,0.00,,2013-02-11 22:32:00,
2013-02-11 13:41:00,12.0,9.0,-100.00,North,0,2.0,4.0,86,0.00,,,0.00,,2013-02-11 22:41:00,
2013-02-11 13:52:00,12.0,9.0,-100.00,NNW,345,2.0,4.0,86,0.00,,,0.00,,2013-02-11 22:52:00,
2013-02-11 14:01:00,12.0,9.0,-100.00,NNW,345,2.0,4.0,86,0.00,,,0.00,,2013-02-11 23:01:00,
2013-02-11 14:11:00,12.0,9.0,-100.00,NNW,345,2.0,4.0,86,0.00,,,0.00,,2013-02-11 23:11:00,
2013-02-11 14:21:00,13.0,10.0,-100.00,NNW,340,2.0,4.0,87,0.00,,,0.00,,2013-02-11 23:21:00,
2013-02-11 14:31:00,13.0,10.0,-100.00,NNW,340,2.0,4.0,87,0.00,,,0.00,,2013-02-11 23:31:00,
2013-02-11 14:41:00,13.0,10.0,-100.00,NNW,340,2.0,4.0,87,0.00,,,0.00,,2013-02-11 23:41:00,
2013-02-11 14:52:00,13.0,10.0,-100.00,NW,325,2.0,4.0,87,0.00,,,0.00,,2013-02-11 23:52:00,
2013-02-11 15:01:00,13.0,10.0,-100.00,NW,325,2.0,4.0,87,0.00,,,0.00,,2013-02-12 00:01:00,
2013-02-11 15:11:00,13.0,10.0,-100.00,NW,325,2.0,4.0,87,0.00,,,0.00,,2013-02-12 00:11:00,
2013-02-11 15:21:00,14.0,11.0,-100.00,NNW,330,2.0,4.0,87,0.00,,,0.00,,2013-02-12 00:21:00,
2013-02-11 15:32:00,14.0,11.0,-100.00,NNW,330,2.0,4.0,87,0.00,,,0.00,,2013-02-12 00:32:00,
2013-02-11 15:42:00,14.0,11.0,-100.00,NNW,330,2.0,4.0,87,0.00,,,0.00,,2013-02-12 00:42:00,
2013-02-11 15:51:00,13.0,10.0,-100.00,WNW,290,1.0,2.0,87,0.00,,,0.00,,2013-02-12 00:51:00,
2013-02-11 16:01:00,13.0,10.0,-100.00,WNW,290,1.0,2.0,87,0.00,,,0.00,,2013-02-12 01:01:00,
2013-02-11 16:11:00,13.0,10.0,-100.00,WNW,290,1.0,2.0,87,0.00,,,0.00,,2013-02-12 01:11:00,
2013-02-11 16:21:00,13.0,10.0,-100.00,NNW,330,1.0,3.0,87,0.00,,,0.00,,2013-02-12 01:21:00,
2013-02-11 16:31:00,13.0,10.0,-100.00,NNW,330,1.0,3.0,87,0.00,,,0.00,,2013-02-12 01:31:00,
2013-02-11 16:42:00,13.0,10.0,-100.00,NNW,330,1.0,3.0,87,0.00,,,0.00,,2013-02-12 01:42:00,
2013-02-11 16:51:00,13.0,10.0,-100.00,NW,310,2.0,4.0,87,0.00,,,0.00,,2013-02-12 01:51:00,
2013-02-11 17:01:00,13.0,10.0,-100.00,NW,310,2.0,4.0,87,0.00,,,0.00,,2013-02-12 02:01:00,
2013-02-11 17:11:00,13.0,10.0,-100.00,NW,310,2.0,4.0,87,0.00,,,0.00,,2013-02-12 02:11:00,
2013-02-11 17:21:00,13.0,10.0,-100.00,NW,310,2.0,4.0,87,0.00,,,0.00,,2013-02-12 02:21:00,
2013-02-11 17:31:00,13.0,10.0,-100.00,NW,310,2.0,4.0,87,0.00,,,0.00,,2013-02-12 02:31:00,
2013-02-11 17:41:00,13.0,10.0,-100.00,NW,310,2.0,4.0,87,0.00,,,0.00,,2013-02-12 02:41:00,
2013-02-11 17:52:00,13.0,10.0,-100.00,NW,310,2.0,4.0,87,0.00,,,0.00,,2013-02-12 02:52:00,
2013-02-11 18:02:00,13.0,10.0,-100.00,NW,310,2.0,4.0,87,0.00,,,0.00,,2013-02-12 03:02:00,
2013-02-11 18:11:00,13.0,10.0,-100.00,NW,310,2.0,4.0,87,0.00,,,0.00,,2013-02-12 03:11:00,
2013-02-11 18:21:00,13.0,9.0,-100.00,NW,320,2.0,4.0,86,0.00,,,0.00,,2013-02-12 03:21:00,
2013-02-11 18:31:00,13.0,9.0,-100.00,NW,320,2.0,4.0,86,0.00,,,0.00,,2013-02-12 03:31:00,
2013-02-11 18:41:00,13.0,9.0,-100.00,NW,320,2.0,4.0,86,0.00,,,0.00,,2013-02-12 03:41:00,
2013-02-11 18:51:00,12.0,9.0,-100.00,NW,320,2.0,4.0,86,0.00,,,0.00,,2013-02-12 03:51:00,
2013-02-11 19:01:00,12.0,9.0,-100.00,NW,320,2.0,4.0,86,0.00,,,0.00,,2013-02-12 04:01:00,
2013-02-11 19:11:00,12.0,9.0,-100.00,NW,320,2.0,4.0,86,0.00,,,0.00,,2013-02-12 04:11:00,
2013-02-11 19:21:00,11.0,8.0,-100.00,NNW,330,3.0,5.0,86,0.00,,,0.00,,2013-02-12 04:21:00,
2013-02-11 19:31:00,11.0,8.0,-100.00,NNW,330,3.0,5.0,86,0.00,,,0.00,,2013-02-12 04:31:00,
2013-02-11 19:41:00,11.0,8.0,-100.00,NNW,330,3.0,5.0,86,0.00,,,0.00,,2013-02-12 04:41:00,
2013-02-11 19:51:00,11.0,8.0,-100.00,NNW,330,2.0,4.0,86,0.00,,,0.00,,2013-02-12 04:51:00,
2013-02-11 20:01:00,11.0,8.0,-100.00,NNW,330,2.0,4.0,86,0.00,,,0.00,,2013-02-12 05:01:00,
2013-02-11 20:11:00,11.0,8.0,-100.00,NNW,330,2.0,4.0,86,0.00,,,0.00,,2013-02-12 05:11:00,
2013-02-11 20:21:00,10.0,7.0,-100.00,NW,305,2.0,4.0,86,0.00,,,0.00,,2013-02-12 05:21:00,
2013-02-11 20:31:00,10.0,7.0,-100.00,NW,305,2.0,4.0,86,0.00,,,0.00,,2013-02-12 05:31:00,
2013-02-11 20:42:00,10.0,7.0,-100.00,NW,305,2.0,4.0,86,0.00,,,0.00,,2013-02-12 05:42:00,
2013-02-11 20:52:00,10.0,7.0,-100.00,NNW,330,2.0,4.0,86,0.00,,,0.00,,2013-02-12 05:52:00,
2013-02-11 21:01:00,10.0,7.0,-100.00,NNW,330,2.0,4.0,86,0.00,,,0.00,,2013-02-12 06:01:00,
2013-02-11 21:12:00,10.0,7.0,-100.00,NNW,330,2.0,4.0,86,0.00,,,0.00,,2013-02-12 06:12:00,
2013-02-11 21:21:00,10.0,7.0,-100.00,NNW,335,2.0,2.0,86,0.00,,,0.00,,2013-02-12 06:21:00,
2013-02-11 21:31:00,10.0,7.0,-100.00,NNW,335,2.0,2.0,86,0.00,,,0.00,,2013-02-12 06:31:00,
2013-02-11 21:42:00,10.0,7.0,-100.00,NNW,335,2.0,2.0,86,0.00,,,0.00,,2013-02-12 06:42:00,
2013-02-11 21:51:00,10.0,7.0,-100.00,North,5,2.0,4.0,86,0.00,,,0.00,,2013-02-12 06:51:00,
2013-02-11 22:01:00,10.0,7.0,-100.00,North,5,2.0,4.0,86,0.00,,,0.00,,2013-02-12 07:01:00,
2013-02-11 22:11:00,10.0,7.0,-100.00,North,5,2.0,4.0,86,0.00,,,0.00,,2013-02-12 07:11:00,
2013-02-11 22:21:00,11.0,8.0,-100.00,North,5,2.0,2.0,86,0.00,,,0.00,,2013-02-12 07:21:00,
2013-02-11 22:31:00,11.0,8.0,-100.00,North,5,2.0,2.0,86,0.00,,,0.00,,2013-02-12 07:31:00,
2013-02-11 22:41:00,11.0,8.0,-100.00,North,5,2.0,2.0,86,0.00,,,0.00,,2013-02-12 07:41:00,
2013-02-11 22:51:00,11.0,8.0,-100.00,NNE,30,1.0,2.0,86,0.00,,,0.00,,2013-02-12 07:51:00,
2013-02-11 23:01:00,11.0,8.0,-100.00,NNE,30,1.0,2.0,86,0.00,,,0.00,,2013-02-12 08:01:00,
2013-02-11 23:11:00,11.0,8.0,-100.00,NNE,30,1.0,2.0,86,0.00,,,0.00,,2013-02-12 08:11:00,
2013-02-11 23:21:00,11.0,8.0,-100.00,ENE,75,1.0,2.0,86,0.00,,,0.00,,2013-02-12 08:21:00,
2013-02-11 23:31:00,11.0,8.0,-100.00,ENE,75,1.0,2.0,86,0.00,,,0.00,,2013-02-12 08:31:00,
2013-02-11 23:52:00,11.0,8.0,-100.00,East,100,1.0,3.0,86,0.00,,,0.00,,2013-02-12 08:52:00,